Presure
159 122 161 155 112 153 155 165 161 155 162 175 174 156 190 209 209 215 162 206 193 190 189 227 218 204 221 214 223 196 182 174 173 169 173 201 217 224 223 229 238 239 220 127 192 183 180 177 160
145 143 149 147 164 168 169 176 161 163 165 162 108 161 189 190 207 205 216 216 125 188 188 185 218 225 202 206 206 210 211 187 182 180 163 182 191 203 213 221 217 232 219 154 240 201 145 184 185
143 161 159 153 161 163 140 172 159 163 156 161 147 169 193 189 203 199 218 205 213 195 189 186 184 235 209 201 201 207 211 210 189 185 180 149 154 183 183 195 202 205 212 217 218 222 230 237 226
173 150 165 168 172 155 166 155 165 161 157 155 165 186 111 186 104 200 216 202 209 169 188 186 187 186 181 237 199 198 205 202 196 186 183 181 183 161 174 180 182 190 199 203 204 207 211 214 222
166 164 167 172 165 167 154 164 167 159 161 170 154 187 190 183 207 198 212 207 197 210 204 206 185 188 213 228 225 205 195 205 208 201 208 196 191 190 200 165 132 154 180 186 191 191 196 144 180
137 173 161 162 161 169 163 160 151 161 172 151 165 185 138 177 212 201 201 205 193 202 201 199 197 184 185 221 223 225 250 206 194 195 193 197 196 194 197 217 214 203 205 199 111 176 183 185 142
143 163 151 154 153 172 162 166 160 154 167 164 122 180 187 180 172 201 198 207 195 191 204 194 189 195 184 183 192 190 218 226 208 223 223 211 213 209 216 215 210 218 211 212 193 101 99 147 179
179 169 178 153 151 168 158 169 172 153 158 158 166 180 189 175 174 200 200 212 195 195 197 206 196 185 188 185 186 214 184 177 215 209 214 216 212 214 210 202 215 209 204 201 202 205 95 164 196
162 165 164 162 174 172 156 163 162 147 150 154 156 183 186 171 181 201 201 209 205 192 192 202 208 199 190 185 183 187 192 188 185 193 196 210 207 205 207 207 198 195 191 190 188 201 209 212 182
154 164 171 164 169 142 150 154 157 173 153 178 163 177 181 129 181 203 197 207 209 199 194 191 205 205 188 190 184 182 185 195 192 186 183 209 210 213 182 183 189 190 189 196 201 201 202 203 203
155 166 165 176 158 169 159 167 159 170 172 175 159 184 162 191 177 204 199 199 206 199 197 196 210 207 199 185 192 183 180 183 188 194 131 193 190 187 192 193 196 198 199 198 198 196 198 198 197
171 161 170 157 174 161 170 169 148 166 168 174 169 185 154 177 176 207 200 196 202 200 201 197 205 227 212 198 185 190 182 180 181 191 193 141 188 135 184 193 198 198 195 192 196 193 187 188 190
161 168 173 164 168 169 168 152 176 173 161 142 165 179 183 181 172 193 197 193 198 202 198 200 223 241 212 209 201 168 188 183 178 181 181 183 179 180 185 191 191 191 193 174 189 189 187 184 184
179 190 178 178 165 169 168 171 164 165 169 172 174 184 181 181 172 182 199 189 200 203 203 199 215 237 209 210 203 203 186 187 185 177 179 178 187 186 187 190 186 191 192 181 189 182 181 179 179
185 175 167 169 171 172 172 174 175 168 183 187 167 184 186 187 172 197 197 197 202 200 211 196 205 224 221 208 206 202 202 189 186 181 181 176 179 175 178 181 179 176 171 126 126 128 134 154 173
172 165 166 167 173 171 165 168 182 170 165 177 173 180 187 190 180 180 193 202 201 196 213 197 195 223 220 213 208 204 203 194 192 185 185 181 177 175 178 179 176 177 177 178 120 116 120 124 123
160 164 163 187 163 163 175 178 169 172 165 187 172 182 189 184 179 178 196 202 196 196 201 216 196 196 223 232 209 205 204 200 194 192 184 187 183 163 176 176 177 178 179 150 152 149 119 118 124
184 160 165 169 168 168 161 184 167 177 190 182 188 189 190 182 190 189 191 198 200 198 198 220 206 194 200 223 251 217 204 203 199 194 191 184 183 184 174 177 175 176 177 179 180 179 160 128 128
189 164 158 167 195 159 167 177 165 162 184 193 191 181 186 181 196 197 203 200 196 196 210 210 209 199 195 198 218 214 238 205 202 198 195 192 188 184 183 182 183 182 179 177 175 177 183 162 186
198 188 190 158 166 167 181 165 162 186 178 193 189 192 183 203 190 200 197 194 198 198 212 205 204 204 196 193 200 217 213 236 230 202 196 196 196 194 189 184 182 181 181 180 180 180 179 175 180
191 191 195 187 191 195 160 197 195 193 190 196 187 186 193 205 192 205 198 198 190 200 215 212 206 201 195 190 192 202 217 214 209 222 232 217 204 196 195 194 193 192 191 188 186 184 184 184 185
197 195 196 195 197 200 193 191 196 195 189 195 198 188 200 202 198 202 198 193 185 200 194 206 201 195 197 189 194 189 195 207 212 209 206 205 216 228 223 215 205 193 192 193 192 196 192 203 185
204 204 199 198 197 193 190 194 197 194 192 191 193 198 198 199 198 192 195 193 196 192 211 200 199 195 190 191 194 190 195 198 205 204 206 207 204 203 201 201 202 222 226 227 223 220 218 217 217
216 203 203 194 185 189 199 197 197 195 210 196 204 198 197 196 206 195 198 207 184 191 207 202 203 192 193 195 202 193 193 195 200 198 200 201 201 201 201 201 201 202 202 202 199 197 196 193 194
214 212 218 220 206 193 199 206 187 196 189 212 197 199 195 207 196 197 206 201 196 189 206 200 194 195 193 194 201 192 196 190 195 200 196 194 198 199 199 200 198 197 199 199 200 200 201 201 201
233 217 207 208 211 195 200 189 190 206 199 195 196 201 209 204 196 211 198 190 191 201 213 204 203 197 193 190 196 192 192 189 191 187 191 197 201 200 197 198 198 199 200 199 198 198 200 202 202
201 202 209 203 202 204 192 205 206 204 199 197 204 205 203 196 210 195 194 190 197 202 199 201 201 194 193 193 193 190 192 188 183 187 198 200 207 214 213 209 206 203 202 200 200 201 200 197 195
213 217 211 200 200 203 207 201 199 199 203 203 201 192 207 195 191 192 199 205 204 196 198 198 196 199 199 195 196 197 198 198 196 189 201 201 201 202 202 202 203 202 201 206 206 203 206 205 203
203 206 210 211 212 206 200 194 198 196 200 194 198 195 194 190 192 202 194 197 200 199 200 205 202 202 198 200 199 198 196 201 201 200 205 205 204 203 198 197 199 201 202 200 198 198 202 203 204
211 208 209 207 205 199 212 197 198 195 194 201 192 195 197 201 197 190 194 201 196 193 200 203 206 206 206 206 203 201 206 205 201 199 197 197 197 201 204 205 203 201 201 204 207 204 205 209 206
Wind_Speed
58 26 59 53 20 48 47 51 49 33 44 51 51 33 46 45 37 30 18 13 19 17 18 19 16 17 20 22 24 29 34 38 36 36 35 25 23 24 27 29 27 33 44 38 57 57 57 57 52
46 40 45 44 55 55 48 51 48 46 44 44 9 34 45 44 37 32 23 16 18 20 18 19 24 25 20 20 22 24 25 35 35 36 33 33 28 26 26 27 28 26 34 36 37 58 48 59 62
46 66 57 51 51 51 33 46 47 48 36 43 27 40 45 45 35 33 28 18 15 18 20 21 20 20 22 22 23 22 24 26 34 35 37 32 32 31 30 27 29 31 32 34 36 40 42 44 53
57 54 61 60 52 50 50 48 51 47 40 35 45 45 9 42 12 32 29 20 18 18 21 22 22 22 22 23 23 24 24 26 31 35 35 35 35 36 35 33 33 32 34 34 36 38 40 42 43
56 59 60 57 52 51 47 50 49 44 47 51 35 46 42 38 34 32 30 24 20 18 18 17 23 22 18 18 20 23 26 26 28 30 30 33 34 35 33 36 32 33 35 35 35 38 38 37 40
45 58 53 50 51 52 50 49 42 50 49 32 47 46 22 35 32 30 30 23 23 21 20 20 21 23 23 17 19 20 24 27 29 31 32 33 34 35 34 31 31 34 32 33 29 38 39 40 40
48 56 48 51 48 54 52 51 47 38 48 48 23 45 42 38 32 30 28 22 24 23 21 22 25 24 24 25 23 25 23 24 29 27 29 33 32 33 30 31 33 29 29 29 31 35 33 41 36
61 59 60 49 49 57 52 49 50 39 44 44 47 45 43 38 36 32 28 23 25 24 24 22 25 28 27 26 26 25 28 28 29 30 30 31 33 32 33 33 30 29 29 30 29 29 41 31 36
53 57 57 56 57 56 51 54 51 37 36 39 43 44 42 38 38 33 31 26 22 26 27 26 26 28 30 30 29 28 28 29 29 29 30 32 33 34 34 32 30 30 30 30 32 30 27 26 32
53 58 57 58 56 38 38 51 50 51 42 49 47 45 43 27 39 33 34 28 24 26 30 30 30 30 33 32 32 31 30 30 31 30 30 32 32 33 32 32 33 32 32 32 31 29 28 28 28
58 59 60 57 54 57 56 53 53 53 51 49 45 45 37 40 39 33 34 32 25 27 30 34 33 33 34 36 34 34 33 33 32 32 33 33 34 34 35 34 34 33 33 32 31 31 29 29 29
61 61 57 54 55 55 57 57 42 54 53 49 49 46 37 40 40 33 33 33 31 30 31 33 36 36 35 36 38 37 37 36 34 33 34 36 34 36 36 35 35 35 35 34 33 32 33 33 32
65 60 59 59 60 58 59 45 55 55 53 39 49 46 45 43 41 38 35 36 34 34 32 32 34 36 37 37 38 36 39 39 38 37 36 36 36 36 36 37 37 37 37 36 35 35 35 35 35
69 63 59 60 62 61 60 58 58 58 56 53 51 47 46 43 43 42 36 38 35 34 34 33 34 34 36 38 39 39 42 42 41 41 40 40 38 39 39 39 38 38 38 39 38 38 39 39 39
63 55 58 60 61 62 60 57 58 58 55 51 53 48 48 43 43 40 38 37 34 34 33 34 33 31 35 38 39 40 41 44 45 44 44 44 43 43 43 42 43 43 43 44 43 42 43 43 43
58 60 61 61 62 62 61 60 58 59 56 54 55 52 49 44 43 42 41 36 34 35 33 37 36 31 34 37 40 41 43 45 47 48 48 47 47 47 46 47 47 47 47 47 49 48 47 47 48
62 63 64 58 65 61 59 57 62 62 55 56 57 55 49 46 46 45 41 36 36 35 34 34 39 38 32 36 40 42 44 46 48 48 50 50 50 49 51 51 51 51 51 51 52 52 53 53 53
64 69 65 68 65 63 63 62 64 63 60 58 56 54 50 49 47 47 45 39 37 37 36 34 38 41 38 34 36 42 44 45 48 49 51 54 54 55 54 55 55 55 55 55 56 56 57 57 58
72 71 64 70 68 65 67 63 63 62 63 60 56 58 53 52 47 45 39 40 40 40 38 34 36 40 41 39 36 40 42 47 49 51 53 55 57 58 59 59 59 59 60 60 61 61 61 61 62
69 68 69 64 71 72 68 66 65 67 64 60 57 54 55 51 51 45 43 42 42 41 37 36 37 37 41 43 40 39 42 40 45 52 54 56 58 59 61 63 64 64 64 65 65 66 66 66 66
69 68 74 66 68 67 67 67 61 65 63 60 60 58 55 50 53 45 45 43 44 41 37 38 37 40 44 45 44 41 39 44 48 48 49 54 58 60 62 64 66 67 68 69 69 70 70 70 70
69 69 69 68 68 65 66 67 62 61 63 61 58 59 53 51 51 48 47 46 48 41 42 38 38 42 44 48 45 49 47 43 46 50 53 55 54 54 58 62 65 68 69 70 71 71 72 71 73
75 73 70 66 64 62 65 63 64 62 61 61 60 56 54 52 51 52 50 49 47 46 43 42 42 44 48 49 48 51 48 49 48 50 51 54 57 59 62 63 64 59 61 63 66 68 69 70 70
69 70 70 64 61 59 65 61 65 65 59 59 58 57 56 55 52 52 52 50 52 50 45 45 48 50 50 50 49 52 52 52 51 53 53 55 57 59 61 63 65 67 68 70 72 73 75 76 76
65 66 61 57 62 60 66 60 62 66 65 62 60 59 58 55 55 54 52 51 52 53 51 51 52 53 54 54 52 55 55 58 56 56 59 62 62 63 65 67 69 71 71 72 72 73 74 75 76
60 58 59 58 58 61 63 62 66 65 66 66 63 62 60 58 56 55 54 55 56 56 53 54 55 57 58 59 56 59 60 62 62 63 64 64 65 68 70 71 73 74 75 76 77 78 78 78 79
61 61 63 61 60 61 63 64 63 64 66 67 65 63 62 62 58 58 58 60 60 58 56 57 59 61 62 62 64 65 66 67 69 69 67 67 65 66 68 70 73 76 78 80 80 82 83 84 84
62 61 61 62 62 63 62 63 65 66 66 66 66 66 65 63 63 63 64 63 62 61 62 62 63 63 64 66 67 68 69 71 71 74 70 70 69 69 71 73 75 77 80 80 81 84 84 85 87
62 64 65 64 60 62 63 63 67 67 67 68 68 67 67 68 68 68 66 66 67 66 67 66 66 67 68 69 70 71 73 73 73 74 72 72 73 75 77 79 81 83 84 86 87 88 89 89 90
63 64 64 65 64 65 63 63 67 70 71 69 69 70 71 71 71 71 72 72 70 70 71 71 71 71 72 73 74 75 75 75 76 77 78 79 80 81 82 84 86 88 89 90 92 92 93 95 96
Wind_Direction
278 277 287 289 266 293 297 302 304 305 315 314 318 315 331 335 333 341 312 287 277 271 263 256 258 240 243 243 243 234 231 237 236 236 235 234 240 234 235 240 246 242 238 229 232 232 233 233 235
281 284 288 288 293 298 297 301 301 306 312 314 274 320 330 332 330 331 331 318 294 265 262 260 246 244 247 244 239 236 236 232 234 235 236 231 232 235 235 236 235 241 233 231 241 232 231 236 236
280 279 284 286 290 294 291 300 300 304 311 313 301 318 331 330 325 324 333 313 300 259 255 255 252 239 245 243 239 243 241 237 234 235 235 237 233 230 230 232 232 232 234 233 233 235 237 239 238
279 278 281 285 290 289 294 295 298 302 307 309 312 323 258 326 267 322 329 307 309 286 255 251 253 248 248 234 246 242 242 236 235 237 237 237 235 232 230 230 232 233 234 233 233 235 236 237 237
281 277 278 284 286 289 291 292 296 300 306 308 306 322 326 323 322 315 328 311 298 302 278 263 248 247 246 247 241 243 241 240 242 240 245 242 240 238 245 234 229 232 235 235 234 236 235 234 236
273 279 278 281 285 287 287 289 295 298 302 299 310 318 301 319 320 314 317 306 292 294 280 272 260 252 247 267 252 249 246 241 239 239 241 242 244 244 247 248 242 243 241 238 230 237 238 237 236
268 274 273 276 281 285 284 287 290 299 300 305 280 313 316 314 314 311 307 303 287 283 282 266 262 260 251 250 251 247 244 234 238 238 238 243 243 247 243 242 242 240 239 240 238 236 230 236 239
276 275 274 274 278 279 281 284 286 292 299 303 304 309 314 308 312 309 303 308 282 280 278 273 258 258 257 251 250 254 246 245 241 242 241 241 242 240 239 243 241 237 238 240 240 240 240 237 239
267 269 270 273 275 277 282 282 286 282 292 297 303 306 308 302 310 306 303 307 285 275 273 271 265 252 252 250 250 250 251 250 249 248 246 241 240 242 239 239 241 241 241 240 240 242 246 248 242
264 267 270 270 274 274 279 285 287 287 293 295 297 302 303 284 306 303 302 304 296 277 273 268 266 257 251 250 248 248 248 249 248 248 247 241 242 237 249 247 245 243 244 243 243 243 244 245 244
262 266 267 273 273 273 276 280 282 285 287 292 294 301 294 305 302 300 300 298 295 280 275 271 268 258 249 250 247 247 247 247 247 248 241 246 246 249 247 247 247 246 244 244 244 243 244 245 246
263 263 268 271 271 271 275 276 278 283 286 289 292 299 288 296 298 296 296 293 294 280 276 270 268 257 253 248 249 246 247 247 247 247 246 243 248 239 246 248 246 245 245 244 244 244 243 243 245
261 263 267 267 268 270 272 272 279 282 284 278 289 292 293 293 290 295 293 290 286 285 274 274 272 253 254 249 247 250 248 247 247 247 246 245 246 247 247 247 247 247 246 244 244 245 246 246 246
262 264 265 263 267 270 273 275 277 280 283 285 287 289 289 289 289 295 287 286 284 285 277 272 274 257 253 251 250 248 251 249 248 247 247 247 247 246 247 247 246 247 247 245 247 246 247 247 247
258 262 263 265 267 270 272 275 275 277 284 285 286 287 289 289 286 288 285 282 281 283 279 270 272 261 252 251 250 250 248 250 250 249 248 248 249 249 249 248 248 248 248 242 243 244 244 247 249
261 261 264 267 266 268 272 273 276 278 280 281 283 285 287 288 286 286 285 280 279 278 289 269 267 265 255 252 250 250 249 248 248 250 250 250 251 252 252 252 252 251 250 250 242 243 245 247 247
261 261 263 259 265 268 272 271 275 277 279 280 282 283 284 283 284 286 283 281 277 278 281 278 267 264 261 255 251 250 249 248 249 249 252 251 252 252 252 253 254 254 254 249 249 249 244 245 248
257 258 259 262 265 267 270 271 273 278 279 278 281 280 281 281 285 284 281 280 277 278 278 281 266 264 262 260 257 252 251 250 250 249 250 251 251 251 252 253 254 254 255 256 256 256 253 249 249
253 260 264 260 263 267 267 269 273 277 278 277 275 276 278 278 281 280 281 279 279 279 284 277 265 260 262 260 260 256 254 252 251 250 250 250 250 251 252 253 254 254 255 255 255 255 257 255 259
253 253 256 263 262 264 267 271 274 273 275 276 276 278 277 281 279 279 276 277 280 281 280 271 267 261 258 259 259 258 255 255 254 252 252 253 252 252 253 253 254 254 255 255 256 257 257 256 258
251 252 255 256 260 264 269 269 268 271 270 274 274 275 278 278 278 278 275 278 277 279 276 271 263 260 259 261 260 261 260 256 255 255 254 254 255 255 255 255 255 256 256 257 258 258 259 260 260
250 252 254 256 259 263 264 267 266 267 271 273 274 275 277 277 277 276 273 275 276 275 273 268 262 258 259 260 260 262 259 259 258 256 256 256 256 257 258 257 257 257 258 259 260 261 260 263 261
249 252 254 255 258 260 263 265 269 267 269 271 273 275 273 273 274 274 274 275 275 274 275 270 265 259 259 260 258 260 259 259 258 258 258 258 258 259 259 260 260 261 262 262 262 263 264 265 265
251 251 253 253 255 259 262 263 267 269 267 269 272 271 272 273 270 270 271 273 273 274 276 267 266 264 263 261 260 260 261 260 260 258 258 258 258 259 260 261 261 261 261 262 262 263 263 264 264
250 252 255 254 256 256 260 260 264 269 270 270 268 268 270 270 269 271 272 271 271 271 274 267 264 263 263 263 261 261 260 261 261 260 260 261 260 259 259 259 260 260 261 261 262 263 264 264 265
246 248 252 253 253 255 258 263 263 264 267 269 270 271 270 269 270 271 269 269 271 273 269 266 266 264 264 265 263 262 262 263 262 262 262 261 262 262 262 262 262 263 263 263 263 263 264 264 264
245 248 250 250 252 252 258 260 260 262 264 266 269 269 269 272 271 271 270 268 271 270 268 267 265 264 264 265 265 266 265 265 266 265 264 264 265 264 263 263 262 262 263 263 264 264 264 265 266
244 244 246 250 252 253 253 256 260 261 263 265 266 269 270 271 271 270 272 272 271 271 270 268 266 265 264 264 264 264 264 265 265 267 266 265 264 263 262 262 262 262 262 263 263 263 263 264 265
245 246 247 249 249 250 252 256 258 261 262 264 266 268 269 269 271 273 274 274 272 272 272 272 271 269 268 267 267 267 267 267 267 267 268 267 266 265 264 263 263 263 262 263 264 265 265 264 264
240 244 246 249 250 253 254 254 256 259 262 264 267 268 270 273 272 272 275 276 277 276 274 273 272 271 270 269 268 268 269 268 267 267 266 266 266 266 266 266 265 265 266 266 266 266 266 265 265